"Period start","avg(HW err(1)/warn(2) (#))","avg(Visibility (m))","avg(Weather code (#))","avg(Precip intensity (mm/h))","min(HW err(1)/warn(2) (#))","max(HW err(1)/warn(2) (#))","std(HW err(1)/warn(2) (#))","med(HW err(1)/warn(2) (#))","min(Visibility (m))","max(Visibility (m))","std(Visibility (m))","med(Visibility (m))","min(Weather code (#))","max(Weather code (#))","std(Weather code (#))","med(Weather code (#))","min(Precip intensity (mm/h))","max(Precip intensity (mm/h))","std(Precip intensity (mm/h))","med(Precip intensity (mm/h))"
2017-10-18 00:00:00,2,10030,71,0.17,2,2,0,2,4247,16386,3881,8884,71,71,0,71,0.00,0.55,0.15,0.12
2017-10-18 00:10:00,2,7511,71,0.19,2,2,0,2,3421,12804,2860,6952,71,71,0,71,0.00,0.60,0.22,0.08
2017-10-18 00:20:00,2,8085,71,0.18,2,2,0,2,5551,11305,1521,7792,71,71,0,71,0.00,0.45,0.13,0.17
2017-10-18 00:30:00,2,7242,71,0.10,2,2,0,2,4916,9585,1322,7223,71,71,0,71,0.00,0.40,0.13,0.05
2017-10-18 00:40:00,2,8894,71,0.26,2,2,0,2,6114,11357,1742,8399,71,71,0,71,0.00,0.70,0.20,0.25
2017-10-18 00:50:00,2,7939,71,0.31,2,2,0,2,5337,11364,2305,7274,71,71,0,71,0.05,0.85,0.27,0.20
2017-10-18 01:00:00,2,8340,71,0.17,2,2,0,2,4767,12737,2454,8770,71,71,0,71,0.00,0.70,0.20,0.10
2017-10-18 01:10:00,2,11502,71,0.23,2,2,0,2,6425,15129,2404,12176,71,71,0,71,0.00,0.65,0.21,0.17
2017-10-18 01:20:00,2,16894,71,0.08,2,2,0,2,11518,21483,2904,17340,71,71,0,71,0.00,0.40,0.13,0.03
2017-10-18 01:30:00,2,16345,71,0.08,2,2,0,2,10041,24058,4694,16245,71,71,0,71,0.00,0.30,0.08,0.08
2017-10-18 01:40:00,2,14383,71,0.11,2,2,0,2,6090,20345,4667,15170,71,71,0,71,0.00,0.20,0.09,0.12
2017-10-18 01:50:00,2,17256,73,0.03,2,2,0,2,11649,29533,5064,15615,71,77,3,71,0.00,0.15,0.05,0.00
2017-10-18 02:00:00,2,24508,71,0.03,2,2,0,2,16686,36781,5254,23895,71,71,0,71,0.00,0.15,0.05,0.00
2017-10-18 02:10:00,2,33415,71,0.02,2,2,0,2,19523,43756,7112,32652,71,71,0,71,0.00,0.10,0.03,0.00
2017-10-18 02:20:00,2,17019,69,0.00,2,2,0,2,8360,29635,6549,14858,0,78,23,78,0.00,0.00,0.00,0.00
2017-10-18 02:30:00,2,16887,7,0.00,2,2,0,2,11395,26301,4816,15964,0,71,21,0,0.00,0.00,0.00,0.00
2017-10-18 02:40:00,2,7998,77,0.01,2,2,0,2,2562,19846,4858,6408,71,78,2,78,0.00,0.05,0.02,0.00
2017-10-18 02:50:00,2,8026,41,0.01,2,2,0,2,3736,14698,3290,7120,10,78,31,40,0.00,0.10,0.03,0.00
2017-10-18 03:00:00,2,7078,10,0.00,2,2,0,2,1931,12342,3394,7352,10,10,0,10,0.00,0.00,0.00,0.00
2017-10-18 03:10:00,2,3600,10,0.00,2,2,0,2,2325,7743,1631,2875,10,10,0,10,0.00,0.00,0.00,0.00
2017-10-18 03:20:00,2,4424,10,0.00,2,2,0,2,1559,7173,1866,4789,10,10,0,10,0.00,0.00,0.00,0.00
2017-10-18 03:30:00,2,8070,10,0.00,2,2,0,2,3768,14350,3184,7552,10,10,0,10,0.00,0.00,0.00,0.00
2017-10-18 03:40:00,2,8478,10,0.00,2,2,0,2,5407,12141,2014,7929,10,10,0,10,0.00,0.00,0.00,0.00
2017-10-18 03:50:00,2,8767,10,0.00,2,2,0,2,5653,11622,1665,8760,10,10,0,10,0.00,0.00,0.00,0.00
2017-10-18 04:00:00,2,10236,10,0.00,2,2,0,2,6362,15093,2857,10390,10,10,0,10,0.00,0.00,0.00,0.00
2017-10-18 04:10:00,2,9971,10,0.00,2,2,0,2,7516,17056,2747,8978,10,10,0,10,0.00,0.00,0.00,0.00
2017-10-18 04:20:00,2,10454,56,0.00,2,2,0,2,6142,16094,3550,10308,10,78,30,74,0.00,0.00,0.00,0.00
2017-10-18 04:30:00,2,15133,12,0.00,2,2,0,2,9794,23244,4176,14106,0,78,23,5,0.00,0.00,0.00,0.00
2017-10-18 04:40:00,2,14620,0,0.00,2,2,0,2,11354,18881,2481,14082,0,0,0,0,0.00,0.00,0.00,0.00
2017-10-18 04:50:00,2,14678,0,0.00,2,2,0,2,5106,22373,4778,14690,0,0,0,0,0.00,0.00,0.00,0.00
2017-10-18 05:00:00,2,25290,0,0.00,2,2,0,2,18190,31053,3819,24702,0,0,0,0,0.00,0.00,0.00,0.00
2017-10-18 05:10:00,2,24741,0,0.00,2,2,0,2,16807,39213,5996,23438,0,0,0,0,0.00,0.00,0.00,0.00
2017-10-18 05:20:00,2,15848,0,0.00,2,2,0,2,7674,31301,6427,13714,0,0,0,0,0.00,0.00,0.00,0.00
2017-10-18 05:30:00,2,27182,0,0.00,2,2,0,2,20883,31942,3585,27585,0,0,0,0,0.00,0.00,0.00,0.00
2017-10-18 05:40:00,2,23558,0,0.00,2,2,0,2,18449,29323,3015,22979,0,0,0,0,0.00,0.00,0.00,0.00
2017-10-18 05:50:00,2,20567,0,0.00,2,2,0,2,7723,43436,11792,17790,0,0,0,0,0.00,0.00,0.00,0.00
2017-10-18 06:00:00,2,35227,0,0.00,2,2,0,2,11484,50000,13310,40467,0,0,0,0,0.00,0.00,0.00,0.00
2017-10-18 06:10:00,2,29705,0,0.00,2,2,0,2,6958,50000,16971,34848,0,0,0,0,0.00,0.00,0.00,0.00
2017-10-18 06:20:00,2,14322,0,0.00,2,2,0,2,7824,21149,4227,13830,0,0,0,0,0.00,0.00,0.00,0.00
2017-10-18 06:30:00,2,21073,0,0.00,2,2,0,2,5693,44230,15613,11096,0,0,0,0,0.00,0.00,0.00,0.00
2017-10-18 06:40:00,2,10470,5,0.00,2,2,0,2,6742,18145,3103,9547,0,10,5,5,0.00,0.00,0.00,0.00
2017-10-18 06:50:00,2,9763,16,0.01,2,2,0,2,3360,14597,3225,10928,10,71,18,10,0.00,0.05,0.02,0.00
2017-10-18 07:00:00,2,6265,77,0.04,2,2,0,2,2487,10350,2385,6149,71,78,3,78,0.00,0.25,0.08,0.00
2017-10-18 07:10:00,2,4578,76,0.12,2,2,0,2,920,8294,2716,4792,71,78,3,78,0.00,0.50,0.17,0.03
2017-10-18 07:20:00,2,3586,78,0.12,2,2,0,2,1588,8199,2171,2730,78,78,0,78,0.00,0.30,0.11,0.10
2017-10-18 07:30:00,2,2128,78,0.13,2,2,0,2,1457,2850,449,2222,78,78,0,78,0.05,0.25,0.06,0.15
2017-10-18 07:40:00,2,4164,78,0.10,2,2,0,2,1368,6833,1718,4057,78,78,0,78,0.00,0.35,0.10,0.05
2017-10-18 07:50:00,2,4457,78,0.04,2,2,0,2,2596,6775,1248,4554,78,78,0,78,0.00,0.10,0.03,0.05
2017-10-18 08:00:00,2,1302,77,0.39,2,2,0,2,777,1705,270,1312,71,78,2,78,0.20,0.75,0.18,0.33
2017-10-18 08:10:00,2,1306,71,0.51,2,2,0,2,757,2289,555,1120,71,71,0,71,0.10,0.85,0.29,0.50
2017-10-18 08:20:00,2,2983,78,0.07,2,2,0,2,2093,3831,582,2854,77,78,0,78,0.00,0.15,0.04,0.05
2017-10-18 08:30:00,2,1520,78,0.27,2,2,0,2,1022,2111,357,1455,77,78,0,78,0.10,0.50,0.16,0.25
2017-10-18 08:40:00,2,1291,77,0.30,2,2,0,2,980,1729,235,1350,77,78,0,77,0.10,0.75,0.19,0.25
2017-10-18 08:50:00,2,1175,78,0.34,2,2,0,2,734,1856,366,1002,77,78,0,78,0.10,0.85,0.22,0.33
2017-10-18 09:00:00,2,1896,78,0.16,2,2,0,2,1321,2568,376,1910,78,78,0,78,0.05,0.25,0.06,0.15
2017-10-18 09:10:00,2,1936,77,0.20,2,2,0,2,1351,4052,757,1634,71,78,3,78,0.05,0.55,0.15,0.15
2017-10-18 09:20:00,2,1566,77,0.21,2,2,0,2,1090,2172,354,1472,71,78,2,78,0.05,0.70,0.18,0.10
2017-10-18 09:30:00,2,1503,76,0.15,2,2,0,2,1092,2405,397,1329,71,78,3,78,0.05,0.40,0.10,0.12
2017-10-18 09:40:00,2,1167,77,0.27,2,2,0,2,920,1685,253,1056,77,78,0,77,0.15,0.45,0.09,0.28
2017-10-18 09:50:00,2,1578,76,0.31,2,2,0,2,1241,1912,183,1576,71,78,3,77,0.15,0.55,0.14,0.25
2017-10-18 10:00:00,2,1718,71,0.39,2,2,0,2,1260,2296,349,1631,71,71,0,71,0.10,0.65,0.17,0.38
2017-10-18 10:10:00,2,1562,73,0.28,2,2,0,2,1056,2210,327,1662,71,77,3,71,0.05,0.65,0.19,0.23
2017-10-18 10:20:00,2,1738,78,0.09,2,2,0,2,1440,2027,185,1781,78,78,0,78,0.00,0.25,0.07,0.05
2017-10-18 10:30:00,2,1880,78,0.08,2,2,0,2,1406,2643,389,1844,78,78,0,78,0.00,0.20,0.06,0.08
2017-10-18 10:40:00,2,1798,78,0.11,2,2,0,2,1368,2291,322,1697,77,78,0,78,0.00,0.35,0.09,0.10
2017-10-18 10:50:00,2,1446,77,0.17,2,2,0,2,1083,1864,252,1328,71,78,2,78,0.05,0.45,0.15,0.10
2017-10-18 11:00:00,2,1409,72,0.35,2,2,0,2,1175,1920,235,1355,71,77,2,71,0.10,0.70,0.17,0.35
2017-10-18 11:10:00,2,1201,73,0.45,2,2,0,2,860,1545,206,1200,71,77,3,71,0.15,1.05,0.27,0.40
2017-10-18 11:20:00,2,1150,71,1.00,2,2,0,2,831,1455,188,1142,71,71,0,71,0.45,1.80,0.43,0.90
2017-10-18 11:30:00,2,740,72,2.56,2,2,0,2,455,938,140,771,71,72,0,72,1.60,3.90,0.67,2.60
2017-10-18 11:40:00,2,1187,71,1.66,2,2,0,2,533,1592,285,1250,71,72,0,71,0.85,2.90,0.57,1.52
2017-10-18 11:50:00,2,2166,71,1.03,2,2,0,2,1149,4612,1028,1626,71,71,0,71,0.30,2.05,0.55,0.98
2017-10-18 12:00:00,2,1869,71,1.72,2,2,0,2,760,4783,1140,1297,71,71,0,71,0.40,3.80,0.96,1.58
2017-10-18 12:10:00,2,1182,71,1.26,2,2,0,2,913,1739,244,1107,71,71,0,71,0.65,2.30,0.52,1.15
2017-10-18 12:20:00,2,2097,71,0.73,2,2,0,2,1251,3695,675,1924,71,71,0,71,0.35,1.35,0.34,0.60
2017-10-18 12:30:00,2,3512,71,0.47,2,2,0,2,1819,9009,2007,2900,71,71,0,71,0.05,1.15,0.30,0.50
2017-10-18 12:40:00,2,4189,71,0.52,2,2,0,2,1996,9088,2103,3524,71,71,0,71,0.10,1.25,0.36,0.48
2017-10-18 12:50:00,2,4147,71,0.71,2,2,0,2,2171,7145,1321,4244,71,71,0,71,0.05,2.20,0.56,0.57
2017-10-18 13:00:00,2,5931,71,0.60,2,2,0,2,2207,17182,4229,4270,71,71,0,71,0.00,1.25,0.43,0.60
2017-10-18 13:10:00,2,1519,71,3.36,2,2,0,2,589,3005,868,1488,71,71,0,71,0.85,6.90,2.08,2.88
2017-10-18 13:20:00,2,1214,71,3.43,2,2,0,2,800,1493,202,1258,71,71,0,71,2.30,5.55,0.90,3.33
2017-10-18 13:30:00,2,3820,72,3.22,2,2,0,2,650,25615,7426,853,71,72,0,72,0.00,4.80,1.53,3.67
2017-10-18 13:40:00,2,6828,71,2.04,2,2,0,2,1308,17807,6316,3198,71,71,0,71,0.00,5.20,1.61,2.05
2017-10-18 13:50:00,2,9708,71,2.33,2,2,0,2,870,35176,12458,1378,71,71,0,71,0.00,5.80,2.29,1.60
2017-10-18 14:00:00,2,1440,71,4.95,2,2,0,2,706,2586,575,1296,71,71,0,71,1.85,9.75,2.35,4.68
2017-10-18 14:10:00,2,9053,71,0.68,2,2,0,2,1748,23322,7087,6301,71,71,0,71,0.00,2.55,0.76,0.43
2017-10-18 14:20:00,2,27403,57,0.06,2,2,0,2,9175,50000,15910,23574,0,71,28,71,0.00,0.15,0.05,0.05
2017-10-18 14:30:00,2,50000,0,0.00,2,2,0,2,50000,50000,0,50000,0,0,0,0,0.00,0.00,0.00,0.00
2017-10-18 14:40:00,2,48437,0,0.00,2,2,0,2,34373,50000,4688,50000,0,0,0,0,0.00,0.00,0.00,0.00
2017-10-18 14:50:00,2,36069,38,0.01,2,2,0,2,10822,50000,13254,36336,0,78,38,36,0.00,0.10,0.03,0.00
2017-10-18 15:00:00,2,28192,72,0.03,2,2,0,2,13543,43279,9455,29738,71,78,2,71,0.00,0.15,0.04,0.03
2017-10-18 15:10:00,2,34856,71,0.02,2,2,0,2,20934,43649,6525,36117,71,71,0,71,0.00,0.10,0.03,0.00
2017-10-18 15:20:00,2,45184,50,0.01,2,2,0,2,31786,50000,5779,47174,0,71,33,71,0.00,0.05,0.02,0.00
2017-10-18 15:30:00,2,33708,28,0.01,2,2,0,2,21304,47744,9505,33897,0,71,35,0,0.00,0.05,0.02,0.00
2017-10-18 15:40:00,2,35345,77,0.00,2,2,0,2,18718,50000,9436,35794,71,78,2,78,0.00,0.00,0.00,0.00
2017-10-18 15:50:00,2,20091,78,0.04,2,2,0,2,9183,35162,8596,19275,78,78,0,78,0.00,0.20,0.07,0.00
2017-10-18 16:00:00,2,10436,71,0.11,2,2,0,2,5520,15047,2732,11064,71,71,0,71,0.00,0.55,0.15,0.05
2017-10-18 16:10:00,2,6965,73,0.53,2,2,0,2,1608,26754,7253,4985,71,77,3,71,0.00,1.75,0.58,0.30
2017-10-18 16:20:00,2,4336,71,0.55,2,2,0,2,1449,12293,3069,3790,71,71,0,71,0.05,1.60,0.41,0.47
2017-10-18 16:30:00,2,12273,71,0.21,2,2,0,2,7437,18759,3223,11918,71,71,0,71,0.00,0.40,0.13,0.23
2017-10-18 16:40:00,2,4782,71,0.41,2,2,0,2,2550,6769,1525,5026,71,71,0,71,0.05,1.50,0.43,0.35
2017-10-18 16:50:00,2,8874,71,0.48,2,2,0,2,3958,15762,3317,8168,71,71,0,71,0.05,1.00,0.32,0.35
2017-10-18 17:00:00,2,10863,71,0.71,2,2,0,2,3377,32521,8919,6568,71,71,0,71,0.00,2.00,0.54,0.68
2017-10-18 17:10:00,2,7649,71,0.73,2,2,0,2,1572,20394,6505,3920,71,71,0,71,0.05,1.45,0.53,0.80
2017-10-18 17:20:00,2,6621,71,0.69,2,2,0,2,1735,11490,3289,7018,71,71,0,71,0.05,2.65,0.84,0.28
2017-10-18 17:30:00,2,7306,71,0.87,2,2,0,2,1349,19404,5674,5736,71,71,0,71,0.05,3.40,0.90,0.62
2017-10-18 17:40:00,2,1316,71,2.57,2,2,0,2,580,2437,593,1152,71,71,0,71,1.10,4.75,0.97,2.65
2017-10-18 17:50:00,2,2804,71,1.06,2,2,0,2,1098,10286,2601,2008,71,71,0,71,0.05,2.20,0.59,0.97
2017-10-18 18:00:00,2,4687,71,0.82,2,2,0,2,2432,9526,2055,4246,71,71,0,71,0.15,1.75,0.45,0.78
2017-10-18 18:10:00,2,17209,71,0.11,2,2,0,2,6245,43870,11624,16772,71,71,0,71,0.00,0.30,0.11,0.05
2017-10-18 18:20:00,2,32140,28,0.01,2,2,0,2,8238,50000,12463,32990,0,71,35,0,0.00,0.15,0.05,0.00
2017-10-18 18:30:00,2,40328,21,0.00,2,2,0,2,15826,50000,12997,49912,0,71,33,0,0.00,0.00,0.00,0.00
2017-10-18 18:40:00,2,40407,7,0.00,2,2,0,2,7436,50000,13508,47280,0,71,21,0,0.00,0.00,0.00,0.00
2017-10-18 18:50:00,2,44343,21,0.00,2,2,0,2,19259,50000,9892,50000,0,71,33,0,0.00,0.00,0.00,0.00
2017-10-18 19:00:00,2,49780,0,0.00,2,2,0,2,47888,50000,631,50000,0,0,0,0,0.00,0.00,0.00,0.00
2017-10-18 19:10:00,2,50000,0,0.00,2,2,0,2,50000,50000,0,50000,0,0,0,0,0.00,0.00,0.00,0.00
2017-10-18 19:20:00,2,49915,0,0.00,2,2,0,2,49154,50000,254,50000,0,0,0,0,0.00,0.00,0.00,0.00
2017-10-18 19:30:00,2,44827,14,0.01,2,2,0,2,19254,50000,9353,50000,0,71,28,0,0.00,0.05,0.02,0.00
2017-10-18 19:40:00,2,21398,71,0.17,2,2,0,2,10886,36689,7504,20322,71,71,0,71,0.00,0.35,0.10,0.20
2017-10-18 19:50:00,2,31165,71,0.03,2,2,0,2,10340,50000,14174,34996,71,71,0,71,0.00,0.15,0.05,0.00
2017-10-18 20:00:00,2,30194,36,0.09,2,2,0,2,9990,50000,13674,29879,0,71,36,36,0.00,0.90,0.27,0.00
2017-10-18 20:10:00,2,47799,0,0.00,2,2,0,2,38500,50000,4082,50000,0,0,0,0,0.00,0.00,0.00,0.00
2017-10-18 20:20:00,2,29474,0,0.00,2,2,0,2,4326,41632,14269,37698,0,0,0,0,0.00,0.00,0.00,0.00
2017-10-18 20:30:00,2,21590,3,0.00,2,2,0,2,602,38648,16820,31949,0,10,5,0,0.00,0.00,0.00,0.00
2017-10-18 20:40:00,2,408,29,0.00,2,2,0,2,321,476,60,410,10,34,9,34,0.00,0.00,0.00,0.00
2017-10-18 20:50:00,2,375,54,0.00,2,2,0,2,339,423,28,368,34,77,20,52,0.00,0.00,0.00,0.00
2017-10-18 21:00:00,2,448,60,0.00,2,2,0,2,369,557,60,442,34,78,21,78,0.00,0.00,0.00,0.00
2017-10-18 21:10:00,2,1730,34,0.00,2,2,0,2,557,3757,1146,1252,34,34,0,34,0.00,0.00,0.00,0.00
2017-10-18 21:20:00,2,1067,26,0.00,2,2,0,2,504,2670,795,603,20,34,6,25,0.00,0.00,0.00,0.00
2017-10-18 21:30:00,2,479,32,0.00,2,2,0,2,414,540,41,466,32,33,0,32,0.00,0.00,0.00,0.00
2017-10-18 21:40:00,2,328,33,0.00,2,2,0,2,294,387,23,325,32,33,0,33,0.00,0.00,0.00,0.00
2017-10-18 21:50:00,2,313,34,0.00,2,2,0,2,300,326,9,316,33,34,0,34,0.00,0.00,0.00,0.00
2017-10-18 22:00:00,2,305,34,0.00,2,2,0,2,251,350,28,306,34,34,0,34,0.00,0.00,0.00,0.00
2017-10-18 22:10:00,2,234,34,0.00,2,2,0,2,211,256,15,234,34,34,0,34,0.00,0.00,0.00,0.00
2017-10-18 22:20:00,2,663,72,0.02,2,2,0,2,200,1081,360,676,34,78,13,78,0.00,0.10,0.03,0.00
2017-10-18 22:30:00,2,921,32,0.00,2,2,0,2,602,1286,236,984,30,34,2,33,0.00,0.00,0.00,0.00
2017-10-18 22:40:00,2,663,32,0.00,2,2,0,2,550,770,65,652,32,32,0,32,0.00,0.00,0.00,0.00
2017-10-18 22:50:00,2,616,32,0.00,2,2,0,2,571,657,23,616,32,32,0,32,0.00,0.00,0.00,0.00
2017-10-18 23:00:00,2,767,32,0.00,2,2,0,2,612,965,145,722,32,32,0,32,0.00,0.00,0.00,0.00
2017-10-18 23:10:00,2,1226,44,0.00,2,2,0,2,817,1579,259,1254,20,71,22,30,0.00,0.00,0.00,0.00
2017-10-18 23:20:00,2,1431,20,0.00,2,2,0,2,990,2455,472,1238,20,20,0,20,0.00,0.00,0.00,0.00
2017-10-18 23:30:00,2,2871,20,0.00,2,2,0,2,1413,7604,1994,2018,20,20,0,20,0.00,0.00,0.00,0.00
2017-10-18 23:40:00,2,2264,20,0.00,2,2,0,2,796,6347,1851,1345,20,20,0,20,0.00,0.00,0.00,0.00
2017-10-18 23:50:00,2,784,30,0.00,2,2,0,2,575,1145,172,724,20,33,5,32,0.00,0.00,0.00,0.00
